TimeEDT,TemperatureF,Dew PointF,Humidity,Sea Level PressureIn,VisibilityMPH,Wind Direction,Wind SpeedMPH,Gust SpeedMPH,PrecipitationIn,Events,Conditions,WindDirDegrees,DateUTC
12:53 AM,69.1,55.9,63,30.01,10.0,NNE,10.4,-,N/A,,Clear,30,2011-10-22 04:53:00
1:53 AM,69.1,55.9,63,30.00,10.0,NNE,8.1,-,N/A,,Clear,20,2011-10-22 05:53:00
3:53 AM,69.1,57.0,65,29.96,10.0,North,10.4,-,N/A,,Clear,10,2011-10-22 07:53:00
5:53 AM,66.9,55.9,68,29.96,10.0,North,11.5,-,N/A,,Clear,360,2011-10-22 09:53:00
6:53 AM,66.9,55.9,68,29.97,10.0,North,10.4,-,N/A,,Clear,360,2011-10-22 10:53:00
7:53 AM,66.9,55.0,66,29.99,10.0,NNE,12.7,19.6,N/A,,Clear,20,2011-10-22 11:53:00
8:53 AM,68.0,57.0,68,30.00,10.0,North,11.5,-,N/A,,Overcast,10,2011-10-22 12:53:00
9:53 AM,71.1,57.0,61,30.01,10.0,North,11.5,20.7,N/A,,Clear,360,2011-10-22 13:53:00
10:53 AM,72.0,59.0,64,30.01,10.0,North,10.4,17.3,N/A,,Clear,360,2011-10-22 14:53:00
11:53 AM,73.9,60.1,62,29.99,10.0,North,9.2,-,N/A,,Clear,360,2011-10-22 15:53:00
12:53 PM,75.9,61.0,60,29.98,10.0,North,10.4,-,N/A,,Clear,10,2011-10-22 16:53:00
1:53 PM,77.0,62.1,60,29.94,10.0,NNE,8.1,-,N/A,,Clear,30,2011-10-22 17:53:00
2:53 PM,78.1,64.0,62,29.92,10.0,North,6.9,-,N/A,,Clear,10,2011-10-22 18:53:00
3:53 PM,78.1,63.0,60,29.91,10.0,North,9.2,-,N/A,,Clear,10,2011-10-22 19:53:00
4:53 PM,78.1,64.0,62,29.91,10.0,NNE,4.6,-,N/A,,Clear,30,2011-10-22 20:53:00
5:53 PM,75.0,64.0,69,29.91,10.0,NNW,4.6,-,N/A,,Clear,330,2011-10-22 21:53:00
6:53 PM,73.9,63.0,68,29.92,10.0,Calm,Calm,-,N/A,,Clear,0,2011-10-22 22:53:00
7:53 PM,71.1,64.9,81,29.93,10.0,Calm,Calm,-,N/A,,Clear,0,2011-10-22 23:53:00
8:53 PM,70.0,64.9,84,29.94,10.0,Calm,Calm,-,N/A,,Clear,0,2011-10-23 00:53:00
9:53 PM,69.1,64.9,87,29.95,10.0,WNW,3.5,-,N/A,,Clear,290,2011-10-23 01:53:00
10:53 PM,70.0,64.9,84,29.95,10.0,NNW,3.5,-,N/A,,Clear,340,2011-10-23 02:53:00
11:53 PM,72.0,66.9,84,29.96,10.0,NW,3.5,-,N/A,,Overcast,320,2011-10-23 03:53:00